Volver al catálogo

CZ-6A DEB

ActivoPO
NORAD 61101·DEBRIS·🇨🇳 China

Lanzado Aug 6, 2024 desde Taiyuan Satellite Launch Center

Loading…

Próximos Pases (próximas 24 horas)

TLE

ActualizadoSource: Space-Track

Época: Sep 14, 2026, 08:31 UTC

1 61101U 24140NT  26257.35497019  .00000174  00000-0  77880-4 0  9996
2 61101  89.0078 266.1032 0052990 281.6134  77.9110 14.17607787105844

Sigue CZ-6A DEB en tiempo real con AllMySat

Download on the App Store